WA7CUG Weather Reports


time (UTC)temp
C
wind
direction
speed
KPH
gust
KPH
rain 1hr
cm
rain 24hr
cm
rain mn
cm
humidity
%
barometer
mb
20260506222035 28 258 17.7 22.5 0.00 0.00 0.00 30 1010.0
20260506221533 28 179 22.5 25.7 0.00 0.00 0.00 30 1009.9
20260506221031 28 221 14.5 16.1 0.00 0.00 0.00 30 1009.8
20260506220526 28 250 14.5 17.7 0.00 0.00 0.00 31 1010.0
20260506220022 28 213 11.3 12.9 0.00 0.00 0.00 31 1010.1
20260506215519 28 233 11.3 16.1 0.00 0.00 0.00 30 1010.0
20260506215015 29 221 14.5 17.7 0.00 0.00 0.00 30 1010.1
20260506214512 29 235 4.8 4.8 0.00 0.00 0.00 28 1009.9
20260506214009 29 232 6.4 9.7 0.00 0.00 0.00 31 1010.0
20260506213507 29 254 8.0 9.7 0.00 0.00 0.00 30 1010.0
20260506213004 30 181 12.9 14.5 0.00 0.00 0.00 30 1010.2
20260506212500 30 187 3.2 3.2 0.00 0.00 0.00 28 1010.2
20260506211955 30 178 0.0 0.0 0.00 0.00 0.00 32 1010.2
20260506211451 30 215 0.0 0.0 0.00 0.00 0.00 31 1010.1
20260506210949 29 174 0.0 1.6 0.00 0.00 0.00 27 1010.3
20260506210445 29 116 1.6 1.6 0.00 0.00 0.00 31 1010.4
20260506205942 29 132 3.2 3.2 0.00 0.00 0.00 30 1010.5
20260506205438 29 174 1.6 1.6 0.00 0.00 0.00 32 1010.5
20260506204934 30 101 1.6 1.6 0.00 0.00 0.00 29 1010.3
20260506204433 29 193 1.6 1.6 0.00 0.00 0.00 28 1010.4
20260506203930 29 99 6.4 9.7 0.00 0.00 0.00 29 1010.5
20260506203427 28 122 1.6 3.2 0.00 0.00 0.00 34 1010.5
20260506202924 28 60 3.2 4.8 0.00 0.00 0.00 31 1010.5
20260506202421 28 139 3.2 3.2 0.00 0.00 0.00 32 1010.5
20260506201917 28 120 4.8 4.8 0.00 0.00 0.00 31 1010.7
20260506201415 28 133 1.6 3.2 0.00 0.00 0.00 34 1010.8
20260506200911 28 128 4.8 4.8 0.00 0.00 0.00 34 1010.8
20260506200407 28 150 0.0 1.6 0.00 0.00 0.00 32 1010.7
20260506195904 27 146 4.8 4.8 0.00 0.00 0.00 35 1010.9
20260506195401 27 170 1.6 3.2 0.00 0.00 0.00 37 1010.9
20260506194858 27 111 1.6 3.2 0.00 0.00 0.00 36 1010.9
20260506194355 26 107 6.4 8.0 0.00 0.00 0.00 36 1010.8
20260506193852 27 140 0.0 1.6 0.00 0.00 0.00 39 1011.1
20260506193349 27 173 0.0 1.6 0.00 0.00 0.00 37 1011.1
20260506192845 27 177 1.6 1.6 0.00 0.00 0.00 36 1011.4
20260506192342 26 112 4.8 8.0 0.00 0.00 0.00 41 1011.8
20260506191839 26 104 1.6 1.6 0.00 0.00 0.00 41 1011.7
20260506191335 26 171 1.6 3.2 0.00 0.00 0.00 40 1011.8
20260506190832 26 183 0.0 0.0 0.00 0.00 0.00 39 1011.8
20260506190328 26 178 0.0 0.0 0.00 0.00 0.00 38 1011.9
20260506185826 25 145 0.0 1.6 0.00 0.00 0.00 44 1012.0
20260506185323 25 116 0.0 1.6 0.00 0.00 0.00 45 1012.1
20260506184820 25 166 0.0 1.6 0.00 0.00 0.00 44 1012.2
20260506184317 25 171 1.6 1.6 0.00 0.00 0.00 45 1012.3
20260506183814 25 179 1.6 3.2 0.00 0.00 0.00 43 1012.2
20260506183309 25 293 1.6 3.2 0.00 0.00 0.00 45 1012.4
20260506182806 25 161 1.6 1.6 0.00 0.00 0.00 43 1012.5
20260506182306 25 176 0.0 0.0 0.00 0.00 0.00 43 1012.1
20260506181801 24 85 3.2 3.2 0.00 0.00 0.00 45 1012.5
20260506181259 24 309 3.2 3.2 0.00 0.00 0.00 47 1012.2
20260506180756 23 181 0.0 1.6 0.00 0.00 0.00 44 1012.6
20260506180252 23 163 1.6 1.6 0.00 0.00 0.00 47 1012.4
20260506175748 23 216 3.2 3.2 0.00 0.00 0.00 46 1012.7
20260506175245 22 158 1.6 3.2 0.00 0.00 0.00 47 1012.6
20260506174743 22 196 1.6 1.6 0.00 0.00 0.00 48 1012.6
20260506174239 22 244 4.8 4.8 0.00 0.00 0.00 48 1012.5
20260506173737 22 282 6.4 9.7 0.00 0.00 0.00 48 1012.8
20260506173234 22 235 1.6 1.6 0.00 0.00 0.00 48 1012.6
20260506172730 21 217 6.4 8.0 0.00 0.00 0.00 51 1012.6
20260506172227 21 2 6.4 9.7 0.00 0.00 0.00 50 1012.8
20260506171719 21 61 4.8 4.8 0.00 0.00 0.00 53 1012.8
20260506171216 21 123 4.8 8.0 0.00 0.00 0.00 51 1012.9
20260506170714 21 163 0.0 0.0 0.00 0.00 0.00 49 1012.9
20260506170210 21 111 4.8 8.0 0.00 0.00 0.00 48 1013.0
20260506165709 21 143 3.2 4.8 0.00 0.00 0.00 51 1013.2
20260506165205 21 159 0.0 0.0 0.00 0.00 0.00 49 1013.1
20260506164703 20 132 1.6 1.6 0.00 0.00 0.00 56 1013.0
20260506164200 20 80 1.6 3.2 0.00 0.00 0.00 51 1013.3
20260506163656 21 140 1.6 1.6 0.00 0.00 0.00 52 1013.0
20260506163151 21 163 1.6 1.6 0.00 0.00 0.00 50 1013.1
20260506162647 20 177 1.6 1.6 0.00 0.00 0.00 53 1013.1
20260506162145 20 193 1.6 1.6 0.00 0.00 0.00 51 1013.3
20260506161642 20 137 1.6 1.6 0.00 0.00 0.00 52 1013.4
20260506161139 21 174 0.0 0.0 0.00 0.00 0.00 51 1013.3
20260506160636 21 132 1.6 3.2 0.00 0.00 0.00 51 1013.2
20260506160133 20 173 0.0 0.0 0.00 0.00 0.00 52 1013.2
20260506155632 20 170 0.0 0.0 0.00 0.00 0.00 51 1013.1
20260506155128 18 157 0.0 1.6 0.00 0.00 0.00 55 1013.5
20260506153231 18 109 3.2 3.2 0.00 0.00 0.00 55 1013.6
20260506152727 18 145 3.2 4.8 0.00 0.00 0.00 56 1013.5
20260506152225 18 145 1.6 3.2 0.00 0.00 0.00 57 1013.6
20260506151724 18 130 3.2 3.2 0.00 0.00 0.00 56 1013.7
20260506151220 18 170 1.6 1.6 0.00 0.00 0.00 56 1013.8
20260506150716 17 168 0.0 1.6 0.00 0.00 0.00 57 1013.7
20260506150214 18 150 1.6 1.6 0.00 0.00 0.00 56 1013.7
20260506145711 17 168 0.0 0.0 0.00 0.00 0.00 55 1013.8
20260506145207 17 151 1.6 3.2 0.00 0.00 0.00 61 1013.6
20260506144705 17 174 0.0 0.0 0.00 0.00 0.00 58 1013.5
20260506144201 17 166 0.0 0.0 0.00 0.00 0.00 58 1013.8
20260506143659 16 171 0.0 0.0 0.00 0.00 0.00 62 1013.8
20260506143157 16 168 0.0 1.6 0.00 0.00 0.00 62 1013.6
20260506142655 15 139 3.2 3.2 0.00 0.00 0.00 62 1013.7
20260506142152 15 167 1.6 1.6 0.00 0.00 0.00 63 1013.6
20260506141650 15 178 0.0 0.0 0.00 0.00 0.00 63 1013.7
20260506141148 15 175 1.6 1.6 0.00 0.00 0.00 63 1013.6
20260506140645 15 162 0.0 0.0 0.00 0.00 0.00 62 1013.6
20260506140142 15 167 3.2 3.2 0.00 0.00 0.00 62 1013.4
20260506135639 15 177 0.0 1.6 0.00 0.00 0.00 64 1013.5
20260506135136 15 171 0.0 1.6 0.00 0.00 0.00 64 1013.4
20260506134632 15 166 0.0 0.0 0.00 0.00 0.00 64 1013.4
20260506134128 15 164 0.0 1.6 0.00 0.00 0.00 65 1013.4
20260506133625 14 170 0.0 0.0 0.00 0.00 0.00 66 1013.5
20260506133122 13 171 0.0 0.0 0.00 0.00 0.00 66 1013.3
20260506132620 13 175 1.6 1.6 0.00 0.00 0.00 67 1013.4
20260506132117 13 192 1.6 1.6 0.00 0.00 0.00 67 1013.2
20260506131614 13 159 0.0 1.6 0.00 0.00 0.00 67 1013.0
20260506131110 13 179 0.0 1.6 0.00 0.00 0.00 68 1013.0
20260506130607 13 159 0.0 0.0 0.00 0.00 0.00 68 1013.1
20260506130105 12 170 0.0 1.6 0.00 0.00 0.00 69 1012.9
20260506125603 12 195 1.6 3.2 0.00 0.00 0.00 69 1012.9
20260506125100 12 175 1.6 1.6 0.00 0.00 0.00 71 1012.9
20260506124558 12 177 0.0 1.6 0.00 0.00 0.00 72 1013.0
20260506124055 11 181 1.6 3.2 0.00 0.00 0.00 73 1012.7
20260506123553 11 167 0.0 1.6 0.00 0.00 0.00 75 1012.7
20260506123051 10 174 1.6 1.6 0.00 0.00 0.00 77 1012.8
20260506122547 10 173 0.0 0.0 0.00 0.00 0.00 77 1012.9
20260506122046 11 176 0.0 0.0 0.00 0.00 0.00 76 1012.7
20260506121543 11 208 3.2 3.2 0.00 0.00 0.00 76 1012.8
20260506121039 11 176 0.0 0.0 0.00 0.00 0.00 74 1012.7
20260506120537 12 202 0.0 1.6 0.00 0.00 0.00 73 1012.5
20260506120034 13 169 3.2 3.2 0.00 0.00 0.00 67 1012.6
20260506115532 13 171 4.8 8.0 0.00 0.00 0.00 67 1012.4
20260506115031 12 197 0.0 1.6 0.00 0.00 0.00 69 1012.6
20260506114527 11 187 1.6 1.6 0.00 0.00 0.00 74 1012.7
20260506114026 11 179 0.0 0.0 0.00 0.00 0.00 76 1012.7
20260506113523 12 176 0.0 0.0 0.00 0.00 0.00 73 1012.7
20260506113021 12 168 0.0 0.0 0.00 0.00 0.00 74 1012.4
20260506112517 12 156 0.0 0.0 0.00 0.00 0.00 73 1012.5
20260506112014 12 186 0.0 0.0 0.00 0.00 0.00 72 1012.6
20260506111512 12 179 0.0 1.6 0.00 0.00 0.00 73 1012.7
20260506111009 12 182 0.0 0.0 0.00 0.00 0.00 71 1012.4
20260506110507 12 173 0.0 0.0 0.00 0.00 0.00 69 1012.6
20260506110004 12 177 0.0 0.0 0.00 0.00 0.00 70 1012.4
20260506105459 13 177 0.0 0.0 0.00 0.00 0.00 69 1012.3
20260506104957 13 168 1.6 1.6 0.00 0.00 0.00 68 1012.3
20260506104455 13 176 0.0 0.0 0.00 0.00 0.00 67 1012.2
20260506103953 13 174 0.0 1.6 0.00 0.00 0.00 65 1012.3
20260506103450 14 179 0.0 0.0 0.00 0.00 0.00 65 1012.0
20260506102946 14 184 0.0 1.6 0.00 0.00 0.00 64 1012.0
20260506102445 15 185 1.6 1.6 0.00 0.00 0.00 63 1011.8
20260506101942 15 187 1.6 3.2 0.00 0.00 0.00 62 1011.9
20260506101438 15 241 8.0 12.9 0.00 0.00 0.00 62 1012.0
20260506100935 14 237 6.4 8.0 0.00 0.00 0.00 63 1012.2
20260506100434 13 186 1.6 1.6 0.00 0.00 0.00 66 1012.1
20260506095931 13 172 0.0 0.0 0.00 0.00 0.00 68 1012.1
20260506095430 13 167 1.6 1.6 0.00 0.00 0.00 67 1012.2
20260506094926 13 177 0.0 0.0 0.00 0.00 0.00 69 1012.1
20260506094424 13 179 0.0 0.0 0.00 0.00 0.00 68 1012.0
20260506093921 13 183 0.0 0.0 0.00 0.00 0.00 69 1012.1
20260506093419 13 177 0.0 0.0 0.00 0.00 0.00 70 1012.0
20260506092917 13 176 0.0 0.0 0.00 0.00 0.00 67 1011.9
20260506092415 14 183 0.0 0.0 0.00 0.00 0.00 67 1012.0
20260506091911 15 177 0.0 0.0 0.00 0.00 0.00 65 1011.8
20260506091409 15 169 1.6 1.6 0.00 0.00 0.00 61 1011.4
20260506090906 15 175 0.0 0.0 0.00 0.00 0.00 62 1011.7
20260506090404 15 173 1.6 1.6 0.00 0.00 0.00 61 1011.7
20260506085900 16 174 0.0 0.0 0.00 0.00 0.00 60 1011.8
20260506085357 16 180 0.0 0.0 0.00 0.00 0.00 59 1011.7
20260506084853 16 170 0.0 1.6 0.00 0.00 0.00 58 1011.8
20260506084350 16 207 3.2 4.8 0.00 0.00 0.00 58 1011.8
20260506083846 16 202 4.8 8.0 0.00 0.00 0.00 57 1011.7
20260506083344 17 211 1.6 1.6 0.00 0.00 0.00 57 1011.7
20260506082841 17 196 3.2 3.2 0.00 0.00 0.00 57 1011.8
20260506082338 17 175 1.6 3.2 0.00 0.00 0.00 56 1011.5
20260506081834 17 210 0.0 0.0 0.00 0.00 0.00 57 1011.5
20260506081332 16 201 1.6 3.2 0.00 0.00 0.00 56 1011.5
20260506080829 16 220 3.2 8.0 0.00 0.00 0.00 57 1011.4
20260506080326 16 181 1.6 3.2 0.00 0.00 0.00 58 1011.7
20260506073310 15 164 3.2 3.2 0.00 0.00 0.00 64 1010.9
20260506072807 15 142 3.2 3.2 0.00 0.00 0.00 62 1010.8
20260506072306 16 137 1.6 1.6 0.00 0.00 0.00 61 1010.9
20260506071802 16 159 0.0 1.6 0.00 0.00 0.00 60 1010.9
20260506071300 16 190 1.6 1.6 0.00 0.00 0.00 62 1010.9
20260506070756 15 190 1.6 1.6 0.00 0.00 0.00 66 1010.9
20260506070254 16 178 0.0 0.0 0.00 0.00 0.00 62 1010.8
20260506062230 17 174 0.0 0.0 0.00 0.00 0.00 58 1010.8
20260506061726 16 185 1.6 1.6 0.00 0.00 0.00 68 1010.7
20260506061224 16 178 0.0 0.0 0.00 0.00 0.00 62 1010.6
20260506060723 15 171 0.0 1.6 0.00 0.00 0.00 63 1010.6
20260506060219 17 183 1.6 1.6 0.00 0.00 0.00 65 1010.6
20260506051145 20 181 0.0 1.6 0.00 0.00 0.00 48 1010.3
20260506050644 20 212 1.6 3.2 0.00 0.00 0.00 47 1010.1
20260506050140 20 175 0.0 1.6 0.00 0.00 0.00 48 1010.2
20260506045133 21 188 1.6 1.6 0.00 0.00 0.00 46 1010.2
20260506044631 21 179 0.0 0.0 0.00 0.00 0.00 47 1010.0
20260506044128 21 200 3.2 4.8 0.00 0.00 0.00 48 1010.0
20260506043625 21 200 0.0 1.6 0.00 0.00 0.00 47 1010.1
20260506043123 21 162 1.6 3.2 0.00 0.00 0.00 46 1009.9
20260506042622 21 180 1.6 3.2 0.00 0.00 0.00 46 1009.6
20260506042120 21 176 6.4 11.3 0.00 0.00 0.00 46 1009.7
20260506041618 21 235 1.6 4.8 0.00 0.00 0.00 46 1009.6
20260506041114 21 161 0.0 1.6 0.00 0.00 0.00 47 1009.8
20260506040612 22 173 1.6 1.6 0.00 0.00 0.00 46 1009.6
20260506040109 24 157 1.6 3.2 0.00 0.00 0.00 42 1009.3
20260506035606 25 222 6.4 9.7 0.00 0.00 0.00 39 1009.3
20260506035102 25 168 6.4 9.7 0.00 0.00 0.00 38 1009.1
20260506034600 25 201 8.0 11.3 0.00 0.00 0.00 38 1009.3
20260506034056 25 220 11.3 17.7 0.00 0.00 0.00 37 1009.3
20260506033554 25 229 17.7 22.5 0.00 0.00 0.00 36 1009.3
20260506033050 25 244 20.9 25.7 0.00 0.00 0.00 36 1009.2
20260506032548 25 186 14.5 20.9 0.00 0.00 0.00 37 1009.2
20260506032045 25 221 9.7 14.5 0.00 0.00 0.00 37 1009.2
20260506031542 25 236 11.3 17.7 0.00 0.00 0.00 37 1009.3
20260506031039 25 225 6.4 9.7 0.00 0.00 0.00 38 1009.2
20260506030537 25 234 3.2 8.0 0.00 0.00 0.00 40 1009.2
20260506030034 23 204 6.4 8.0 0.00 0.00 0.00 42 1009.1
20260506025531 23 179 1.6 1.6 0.00 0.00 0.00 47 1009.0
20260506025027 23 180 0.0 1.6 0.00 0.00 0.00 45 1009.1
20260506024524 23 187 0.0 1.6 0.00 0.00 0.00 43 1009.1
20260506024020 25 178 1.6 1.6 0.00 0.00 0.00 49 1009.0
20260506023516 25 186 1.6 3.2 0.00 0.00 0.00 40 1009.1
20260506023015 24 181 1.6 1.6 0.00 0.00 0.00 47 1009.1
20260506022512 26 191 0.0 0.0 0.00 0.00 0.00 49 1008.9
20260506022009 26 183 0.0 1.6 0.00 0.00 0.00 50 1009.1
20260506021506 27 183 1.6 1.6 0.00 0.00 0.00 47 1008.9
20260506021004 26 178 0.0 0.0 0.00 0.00 0.00 46 1008.9
20260506020501 27 211 1.6 1.6 0.00 0.00 0.00 45 1008.8
20260506015957 27 175 0.0 1.6 0.00 0.00 0.00 36 1008.8
20260506015455 27 172 1.6 1.6 0.00 0.00 0.00 38 1009.0
20260506014952 28 177 0.0 0.0 0.00 0.00 0.00 39 1008.9
20260506014449 28 177 0.0 0.0 0.00 0.00 0.00 40 1008.9
20260506013945 30 190 1.6 1.6 0.00 0.00 0.00 42 1008.8
20260506013444 30 184 0.0 1.6 0.00 0.00 0.00 37 1008.8
20260506012939 29 180 0.0 0.0 0.00 0.00 0.00 28 1009.0
20260506012436 28 176 0.0 0.0 0.00 0.00 0.00 30 1008.7
20260506011933 29 173 0.0 0.0 0.00 0.00 0.00 30 1008.9
20260506011431 28 174 0.0 0.0 0.00 0.00 0.00 29 1008.8
20260506010927 28 153 0.0 0.0 0.00 0.00 0.00 31 1009.0
20260506010426 28 141 1.6 1.6 0.00 0.00 0.00 28 1009.2
20260506005922 29 183 3.2 3.2 0.00 0.00 0.00 27 1009.1
20260506005420 28 175 1.6 1.6 0.00 0.00 0.00 29 1009.2
20260506004915 28 126 1.6 3.2 0.00 0.00 0.00 27 1009.1
20260506004413 28 188 0.0 0.0 0.00 0.00 0.00 29 1009.2
20260506003909 29 162 0.0 0.0 0.00 0.00 0.00 29 1009.3
20260506003405 28 157 1.6 3.2 0.00 0.00 0.00 28 1009.1
20260506002902 28 132 0.0 1.6 0.00 0.00 0.00 28 1009.2
20260506002358 28 84 1.6 1.6 0.00 0.00 0.00 26 1009.1
20260506001854 28 157 1.6 1.6 0.00 0.00 0.00 29 1009.5
20260506001351 29 97 1.6 1.6 0.00 0.00 0.00 26 1009.2
20260506000848 29 175 1.6 1.6 0.00 0.00 0.00 29 1009.5
20260506000346 29 200 1.6 1.6 0.00 0.00 0.00 29 1009.4
20260505235842 29 102 1.6 1.6 0.00 0.00 0.00 30 1009.6
20260505235340 28 170 1.6 1.6 0.00 0.00 0.00 26 1009.6
20260505234836 29 168 4.8 4.8 0.00 0.00 0.00 27 1009.6
20260505234335 28 176 1.6 1.6 0.00 0.00 0.00 28 1009.8
20260505233831 28 46 4.8 8.0 0.00 0.00 0.00 28 1009.8
20260505233329 29 68 4.8 4.8 0.00 0.00 0.00 29 1009.9
20260505232826 28 123 3.2 4.8 0.00 0.00 0.00 26 1009.9
20260505232324 28 38 4.8 4.8 0.00 0.00 0.00 28 1009.7
20260505231820 28 168 0.0 0.0 0.00 0.00 0.00 29 1010.0
20260505231318 28 168 1.6 1.6 0.00 0.00 0.00 27 1010.3
20260505230816 28 99 4.8 8.0 0.00 0.00 0.00 28 1010.2
20260505230313 29 168 1.6 1.6 0.00 0.00 0.00 26 1010.2
20260505225809 30 175 1.6 1.6 0.00 0.00 0.00 25 1010.2
20260505225307 31 171 0.0 0.0 0.00 0.00 0.00 27 1010.5
20260505224802 31 182 1.6 1.6 0.00 0.00 0.00 26 1010.4
20260505224300 30 194 0.0 0.0 0.00 0.00 0.00 32 1010.7
20260505223757 30 181 0.0 1.6 0.00 0.00 0.00 27 1010.7
20260505223254 29 135 0.0 0.0 0.00 0.00 0.00 27 1010.6
20260505222749 29 145 0.0 0.0 0.00 0.00 0.00 25 1010.6
20260505222246 28 178 0.0 0.0 0.00 0.00 0.00 26 1010.7